This demonstration page uses our WeatherBlox Daily Observations layout. Learn more.

Left ArrowRight Arrow

31.84235, -102.49876

Hourly Observations for August 15, 2015

Temp ( °F °C ) Dew Point ( °F °C ) Humidity (%) Winds ( mph kmh ) Pressure ( in mb ) Visibility ( mi km ) Precip ( " mm )
12:53 am 00:53 Clear 74 23.3 64 17.8 71 71 SSW 7 11 29.93 1014 10 16 0.00 0.00
1:53 am 01:53 Clear 73 22.8 65 18.3 76 76 W 3 6 29.92 1013 10 16 0.00 0.00
2:53 am 02:53 undefined 72 22.2 66 18.9 82 82 NE 5 7 29.93 1014 10 16 0.00 0.00
3:53 am 03:53 Clear 71 21.7 66 18.9 84 84 ENE 9 15 29.95 1014 10 16 0.00 0.00
4:53 am 04:53 Clear 71 21.7 66 18.9 84 84 ENE 8 13 29.97 1015 10 16 0.00 0.00
5:53 am 05:53 Clear 71 21.7 67 19.4 87 87 ENE 6 9 29.99 1016 8 13 0.00 0.00
6:53 am 06:53 Clear with Mist and Fog 70 21.1 67 19.4 90 90 E 6 9 29.99 1016 5 8 0.00 0.00
7:53 am 07:53 Sunny with Mist and Fog 71 21.7 68 20 90 90 undefined N/A 30.00 1016 5 8 0.00 0.00
8:53 am 08:53 Mostly Sunny 75 23.9 68 20 79 79 E 7 11 30.00 1016 7 11 0.00 0.00
9:53 am 09:53 Partly Cloudy 81 27.2 67 19.4 62 62 ESE 10 17 30.02 1017 9 14 0.00 0.00
10:53 am 10:53 Mostly Sunny 83 28.3 65 18.3 55 55 ESE 7 11 30.02 1017 10 16 0.00 0.00
11:53 am 11:53 Sunny 86 30 66 18.9 51 51 SE 9 15 30.01 1016 10 16 0.00 0.00
12:53 pm 12:53 Sunny 88 31.1 65 18.3 46 46 Calm 30.01 1016 10 16 0.00 0.00
1:53 pm 13:53 Mostly Sunny 89 31.7 64 17.8 43 43 Calm 29.98 1015 10 16 0.00 0.00
2:53 pm 14:53 Mostly Sunny 92 33.3 62 16.7 37 37 E 6 9 29.96 1015 10 16 0.00 0.00
3:53 pm 15:53 Mostly Cloudy 94 34.4 60 15.6 32 32 Calm 29.93 1014 10 16 0.00 0.00
4:53 pm 16:53 Mostly Sunny 94 34.4 59 15 31 31 Calm 29.90 1012 10 16 0.00 0.00
5:53 pm 17:53 Partly Cloudy 95 35 60 15.6 31 31 ESE 7 11 29.88 1012 10 16 0.00 0.00
6:53 pm 18:53 Sunny 94 34.4 59 15 31 31 ESE 6 9 29.86 1011 10 16 0.00 0.00
7:53 pm 19:53 Partly Cloudy 93 33.9 60 15.6 33 33 ESE 8 13 29.85 1011 10 16 0.00 0.00
8:53 pm 20:53 Partly Cloudy 90 32.2 61 16.1 38 38 ESE 13 20 29.87 1011 10 16 0.00 0.00
9:53 pm 21:53 Mostly Cloudy 88 31.1 62 16.7 42 42 ESE 9 15 29.89 1012 10 16 0.00 0.00
10:53 pm 22:53 Mostly Cloudy 86 30 62 16.7 45 45 S 7 11 29.90 1013 10 16 0.00 0.00
11:53 pm 23:53 Clear 82 27.8 62 16.7 51 51 SSE 12 19 29.93 1014 10 16 0.00 0.00

Powered by AerisWeather